TimeEST,TemperatureF,Dew PointF,Humidity,Sea Level PressureIn,VisibilityMPH,Wind Direction,Wind SpeedMPH,Gust SpeedMPH,PrecipitationIn,Events,Conditions,WindDirDegrees,DateUTC
12:53 AM,45.0,41.0,86,30.18,7.0,Calm,Calm,-,N/A,,Clear,0,2013-01-01 05:53:00
1:53 AM,44.1,39.9,85,30.16,9.0,Calm,Calm,-,N/A,,Clear,0,2013-01-01 06:53:00
2:53 AM,44.1,41.0,89,30.16,9.0,Calm,Calm,-,N/A,,Mostly Cloudy,0,2013-01-01 07:53:00
3:53 AM,48.0,45.0,89,30.15,6.0,SE,3.5,-,N/A,,Overcast,140,2013-01-01 08:53:00
4:53 AM,48.0,45.0,89,30.13,7.0,Calm,Calm,-,N/A,,Overcast,0,2013-01-01 09:53:00
5:53 AM,48.9,46.0,90,30.12,9.0,Calm,Calm,-,N/A,,Overcast,0,2013-01-01 10:53:00
6:53 AM,51.1,48.0,89,30.12,10.0,Calm,Calm,-,N/A,,Overcast,0,2013-01-01 11:53:00
7:53 AM,52.0,48.9,89,30.11,10.0,Calm,Calm,-,N/A,,Overcast,0,2013-01-01 12:53:00
8:53 AM,55.0,51.1,86,30.12,10.0,Calm,Calm,-,N/A,,Overcast,0,2013-01-01 13:53:00
9:53 AM,61.0,54.0,78,30.12,10.0,SSE,4.6,-,N/A,,Mostly Cloudy,150,2013-01-01 14:53:00
10:53 AM,64.9,55.0,70,30.13,10.0,South,9.2,-,N/A,,Overcast,180,2013-01-01 15:53:00
11:53 AM,69.1,55.9,63,30.11,10.0,SSW,13.8,19.6,N/A,,Partly Cloudy,200,2013-01-01 16:53:00
12:48 PM,71.6,57.2,60,30.08,10.0,South,8.1,-,N/A,,Mostly Cloudy,180,2013-01-01 17:48:00
12:53 PM,71.1,57.9,63,30.08,10.0,South,8.1,-,N/A,,Mostly Cloudy,170,2013-01-01 17:53:00
1:31 PM,73.4,57.2,57,30.05,10.0,SSE,11.5,-,N/A,,Overcast,160,2013-01-01 18:31:00
1:53 PM,72.0,59.0,64,30.05,10.0,South,8.1,-,N/A,,Mostly Cloudy,170,2013-01-01 18:53:00
2:53 PM,73.0,59.0,61,30.04,10.0,South,12.7,-,N/A,,Overcast,170,2013-01-01 19:53:00
3:53 PM,72.0,60.1,66,30.02,10.0,SSE,12.7,-,N/A,,Mostly Cloudy,160,2013-01-01 20:53:00
4:53 PM,69.1,60.1,73,30.01,10.0,SSE,12.7,-,N/A,,Scattered Clouds,160,2013-01-01 21:53:00
5:53 PM,66.0,59.0,78,30.01,10.0,SSE,6.9,-,N/A,,Scattered Clouds,160,2013-01-01 22:53:00
6:53 PM,64.9,59.0,81,30.02,10.0,South,5.8,-,N/A,,Scattered Clouds,170,2013-01-01 23:53:00
7:53 PM,64.0,59.0,84,30.01,10.0,SSE,3.5,-,N/A,,Overcast,150,2013-01-02 00:53:00
8:53 PM,63.0,59.0,87,30.01,10.0,SSE,3.5,-,N/A,,Mostly Cloudy,160,2013-01-02 01:53:00
9:53 PM,63.0,59.0,87,30.02,9.0,South,3.5,-,N/A,,Partly Cloudy,170,2013-01-02 02:53:00
10:53 PM,63.0,60.1,90,30.01,7.0,South,3.5,-,N/A,,Scattered Clouds,180,2013-01-02 03:53:00
11:13 PM,62.6,60.8,94,30.01,3.0,SSE,4.6,-,N/A,,Mostly Cloudy,160,2013-01-02 04:13:00
11:53 PM,64.0,62.1,93,30.00,6.0,South,5.8,-,N/A,,Overcast,190,2013-01-02 04:53:00